Location: Hac?musa Deresi
(39.1694°N, 32.2508°E)
Time: 15:10:44
(UTC+00:00)

HBTSS-SV1 - Pass Details

Date: 22 April 2026
Orbit: 583 x 599 km, 40.0° (Epoch: 10 May)

Event Time Altitude Azimuth Distance (km) Brightness Sun altitude
Rises 18:49:03 0° 274° (W) 2,817 8.8 -23.5°
Reaches altitude 10° 18:51:22 10° 276° (W) 1,913 7.8 -23.8°
Enters shadow 18:55:38 78° 330° (NNW) 603 4.5 -24.5°
